星链-2151 (STARLINK-2151 )

导读 | 星芒AI

STARLINK-2151 是 SpaceX Starlink 项目中的一颗低轨通信卫星,属于第二代 Starlink 卫星星座的一部分。该卫星旨在为全球用户提供高速、低延迟的互联网服务,特别关注偏远和网络基础设施薄弱的地区。它运行在约 550 公里的轨道高度,配备先进通信设备和激光链路,以提升数据传输效率和系统稳定性。STARLINK-2151 的发射和运行有助于扩展 Starlink 网络的覆盖范围和性能,推动全球互联网接入的普及。

基本信息
目录编号:
48556
目录名称:
STARLINK-2151
国际标识:
2021-041D
轨道中心:
EARTH
卫星名称:
星链-2151
卫星全名:
星链-2151 (STARLINK-2151 )
卫星状态:
在轨 (已飞行1677 天)
发射日期:
2021-05-15 UTC
国别 :
美国 (US)
星等 :
--
轨道信息
数据来源 国际轨道数据 AOE轨道数据
星历时间 2025-12-16T02:35:37+0800
1天前
查看轨道信息
2025-12-16T15:00:00+0800
17小时前
查看轨道信息
半长轴 6925.347km 6925.345km
偏心率 0.0001381 0.0001683
轨道倾角 53.055° 53.054°
近地点辐角 84.865° 73.498°
升交点赤经 158.329° 156.009°
平近点角 275.250° 211.536°
近地点 546.255km 546.044km
远地点 548.169km 548.376km
周期 95.592分钟 95.592分钟
每日圈数 15.064006 15.064013
详细信息
固有亮度:
5
最大亮度:
2.5
卫星平台:
Starlink V1.0
覆盖范围:
全球
运营商:
太空探索技术公司
运营商所在国:
美国
制造商(研发单位):
太空探索技术公司
制造商所在国:
美国
使用方式:
暂无
卫星简介
星链(Starlink)计划是由太空探索技术公司(SpaceX)提出的一个巨型低轨卫星互联网星座项目,计划在2019年至2024年间在太空搭建由约1.2万颗卫星组成的“星链”网络,其中1584颗将部署在地球上空550千米处的近地轨道,并从2020年开始工作。该卫星仍在工作。
2D轨道图
3D轨道图
轨道高度分析图
轨道倾角分析图
轨道综合分析图
查看轨道综合分析图